Regional Weather Roundup
Issued by NWS New Orleans/Baton Rouge, LA

Current Version | Previous Version | Text Only | Print | Product List | Glossary On
Versions: 1 2 3 4 5 6 7 8 9 10 11 12 13 14 15 16 17 18 19 20 21 22 23 24 25 26 27 28 29 30 31 32 33 34 35 36 37 38 39 40 41 42 43 44 45 46 47 48 49 50
000
ASUS44 KLIX 311112
RWRLIX
NEW ORLEANS REGIONAL WEATHER ROUNDUP
NATIONAL WEATHER SERVICE NEW ORLEANS LA
600 AM CDT FRI JUL 31 2015

NOTE: "FAIR" INDICATES FEW OR NO CLOUDS BELOW 12,000 FEET WITH NO
      SIGNIFICANT WEATHER AND/OR OBSTRUCTIONS TO VISIBILITY.
      SKY/WX - SKY CONDITION AND SIGNIFICANT WEATHER.
      TMP - AIR TEMPERATURE.     DP    - DEWPOINT TEMPERATURE.
      RH  - RELATIVE HUMIDITY.   PRES  - PRESSURE.
      HI  - HEAT INDEX.          WCI   - WIND CHILL INDEX.

*  THESE STATIONS ARE NOT NWS OR FAA STATIONS AND ARE NOT UNDER
   NWS QUALITY CONTROL.

LAZ038-040-048-061>063-065>067-069-311200-
SOUTHEAST LOUISIANA

CITY           SKY/WX    TMP DP  RH WIND       PRES   REMARKS
N.O. AUDUBON     N/A     82  76  83 MISG        N/A
N.O. INTL ARPT MOCLDY    81  73  76 NE9       29.94R
N.O. LAKEFRONT PTCLDY    81  73  76 NE16      29.95R
N.O. DOWNTOWN*   N/A     81  73  78 N6        29.95R
RESERVE*         N/A     77  74  91 CALM      29.96R
SLIDELL        PTCLDY    75  75 100 N6        29.94R
BATON ROUGE    CLEAR     76  73  91 NE3       29.97R
BOOTHVILLE     MOCLDY    83  75  77 N9        29.92S
BELLE CHASSE   MOCLDY    79  75  87 N3        29.94R
BOGALUSA*        N/A     75  71  86 N7        29.96S
GALLIANO*      NOT AVBL
NEW ROADS*       N/A    N/A N/A N/A N6        29.98R
GONZALES*        N/A     76  76 100 N5        29.95S
HAMMOND*       CLEAR     73  72  94 N5        29.97R
HOUMA*         MOCLDY    76  74  94 NW5       29.95R
PORT FOURCHON* CLOUDY    81  75  83 N8        29.94S

$$

MSZ070-080>082-311200-
SOUTHERN MISSISSIPPI

CITY           SKY/WX    TMP DP  RH WIND       PRES   REMARKS
MCCOMB         PTCLDY    74  70  87 N7        29.99R
GULFPORT       MOCLDY    77  70  79 N8        29.92R
BILOXI         MOCLDY    77  72  85 VRB5      29.92R
PASCAGOULA     CLOUDY    75  73  93 N8        29.92R

$$

COASTAL OBSERVATIONS
LAKE AND NEARSHORE STATIONS

STATION/POSITION TIME  TEMP    WIND        PRES    WAVE
                       AIR SEA DIR/SP/G            HT/PER
                 (UTC) (F)     (DEG/KT/KT) (MB)    (FT/S)
PASCAGOULA       1000   78      10/ 10/ 15 1011.8
WAVELAND YACHT   1000   78 85  360/ 10/ 13 1013.4
GRAND ISLE       1000   83 89  350/ 11/ 14 1013.5
SOUTHWEST PASS   1000   84 86  360/  9/ 11 1013.3
NEW CANAL        1000   82 88   20/  8/ 11 1012.9
SHELL BEACH      1000   81 87  360/  9/ 12 1012.8

OFFSHORE STATIONS

STATION/POSITION TIME  TEMP    WIND        PRES    WAVE
                       AIR SEA DIR/SP/G            HT/PER
                 (UTC) (F)     (DEG/KT/KT) (MB)    (FT/S)
64 S DAUPHIN ISL 1050   85 87  360/ 10/ 12 1012.7    2/ 4

$$




USA.gov is the U.S. government's official web portal to all federal, state and local government web resources and services.